Regional Weather Roundup
Issued by NWS

Home | Current Version | Previous Version | Graphics & Text | Print | Product List | Glossary On
Versions: 1 2 3 4 5 6 7 8 9 10 11 12 13 14 15 16 17 18 19 20 21 22 23 24 25 26 27 28 29 30 31 32 33 34 35 36 37 38 39 40 41 42 43 44 45 46 47 48 49 50
000
ASUS43 KOAX 072002
RWRNE

WEATHER ROUNDUP FOR NEBRASKA
NATIONAL WEATHER SERVICE OMAHA NE
200 PM CST SUN FEB 07 2016

NOTES: SATELLITE DATA IS BEING USED TO AUGMENT CLOUD COVER ABOVE
       12000 FEET.
       "FAIR" INDICATES FEW OR NO CLOUDS BELOW 12,000 FEET WITH NO
       SIGNIFICANT WEATHER AND/OR OBSTRUCTIONS TO VISIBILITY.

  * THESE STATIONS DO NOT REPORT WEATHER SUCH AS RAIN...SNOW OR FOG.

NEZ001>004-019>022-054>056-072100-
NEBRASKA PANHANDLE

CITY           SKY/WX    TMP DP  RH WIND       PRES   REMARKS
SCOTTSBLUFF    CLOUDY    34  14  43 NW31G41   30.29F WCI  20
ALLIANCE       SUNNY     33  16  49 NW33G43   30.22F WCI  18
CHADRON        SUNNY     39  14  36 NW29G44   30.24F WCI  27
KIMBALL        CLOUDY    31  19  62 NW23G32   30.27F WCI  17
SIDNEY         PTSUNNY   33  18  53 NW31G40   30.26F WCI  19
$$

NEZ057>060-069>072-079>082-072100-
SOUTHWEST NEBRASKA

CITY           SKY/WX    TMP DP  RH WIND       PRES   REMARKS
NORTH PLATTE   SUNNY     39  19  44 NW26G39   30.15F WCI  28
IMPERIAL       SUNNY     38  21  50 NW22G33   30.24F WCI  27
MCCOOK         MOSUNNY   40  23  50 NW24G35   30.20F WCI  29
$$

NEZ005>010-023>029-035>040-094-072100-
NORTH CENTRAL NEBRASKA

CITY           SKY/WX    TMP DP  RH WIND       PRES   REMARKS
VALENTINE      PTSUNNY   36  16  44 NW28G48   30.05S WCI  23
AINSWORTH      CLOUDY    38  15  39 NW39G52   30.04F WCI  24
BROKEN BOW     PTSUNNY   40  14  34 NW43G56   30.06F WCI  26
ORD            PTSUNNY   40  18  41 NW38G52   30.02F WCI  27
$$

NEZ041-046>049-061>064-073>077-083>087-072100-
SOUTH CENTRAL NEBRASKA

CITY           SKY/WX    TMP DP  RH WIND       PRES   REMARKS
GRAND ISLAND   CLOUDY    41  20  43 NW25G41   30.05F
HASTINGS       MOSUNNY   41  24  51 W21G31    30.06F
HEBRON         SUNNY     42  26  53 W16       30.08F
$$

NEZ011>018-030>034-042>045-072100-
NORTHEAST NEBRASKA

CITY           SKY/WX    TMP DP  RH WIND       PRES   REMARKS
NORFOLK        PTSUNNY   39  25  57 NW32G47   29.94S WCI  27
BLAIR          PTSUNNY   41  25  52 W17G23    29.93F
COLUMBUS *     PTSUNNY   39  19  45 NW23G33   29.99S WCI  29
FREMONT        PTSUNNY   40  22  49 W25G31    29.96F WCI  29
TEKAMAH        CLOUDY    41  25  53 NW22G30   29.92F
$$

NEZ050>053-065>068-078-088>093-072100-
SOUTHEAST NEBRASKA

CITY           SKY/WX    TMP DP  RH WIND       PRES   REMARKS
LINCOLN        MOSUNNY   44  24  45 W20G28    30.00F
OMAHA EPPLEY   MOSUNNY   44  24  45 NW22G39   29.94F
BEATRICE       SUNNY     44  29  55 W21G28    30.03F
FALLS CITY     SUNNY     50  23  34 W28G35    30.01F
NEBRASKA CITY  SUNNY     45  27  49 W21G32    29.98F
$$

NEZ044-045-051>053-067-072100-
OMAHA AREA

CITY           SKY/WX    TMP DP  RH WIND       PRES   REMARKS
OMAHA EPPLEY   MOSUNNY   44  24  45 NW22G39   29.94F
BLAIR          PTSUNNY   41  25  52 W17G23    29.93F
FREMONT        PTSUNNY   40  22  49 W25G31    29.96F WCI  29
OFFUTT AFB     SUNNY     44  24  46 W30G37    29.94F
WAHOO          MOCLDY    42  23  47 NW25G32   29.96F
$$



USA.gov is the U.S. government's official web portal to all federal, state and local government web resources and services.